CW7500 Weather Reports


time (UTC)temp
C
wind
direction
speed
KPH
gust
KPH
rain 1hr
cm
rain 24hr
cm
rain mn
cm
humidity
%
barometer
mb
20260507151527 15 266 6.4 12.9 0.00 0.58 0.10 43 1005.9
20260507151026 15 265 1.6 9.7 0.00 0.58 0.10 52 1006.1
20260507150026 15 300 1.6 8.0 0.00 0.58 0.10 48 1006.1
20260507145026 15 260 4.8 12.9 0.00 0.58 0.10 50 1006.2
20260507144527 14 209 3.2 12.9 0.00 0.58 0.10 53 1006.2
20260507143527 13 281 4.8 9.7 0.00 0.58 0.10 54 1006.3
20260507143026 13 138 3.2 9.7 0.00 0.58 0.10 63 1006.3
20260507142526 13 257 4.8 11.3 0.00 0.58 0.10 59 1006.6
20260507142026 13 259 3.2 11.3 0.00 0.58 0.10 60 1006.6
20260507140527 13 265 3.2 8.0 0.00 0.58 0.10 62 1006.5
20260507140026 13 256 3.2 8.0 0.00 0.58 0.10 63 1006.5
20260507135026 13 281 1.6 8.0 0.00 0.58 0.10 60 1006.4
20260507134526 13 300 3.2 9.7 0.00 0.58 0.10 61 1006.3
20260507133527 12 10 4.8 8.0 0.00 0.58 0.10 61 1006.5
20260507132526 12 231 4.8 9.7 0.00 0.58 0.10 64 1006.6
20260507132026 12 252 3.2 9.7 0.00 0.58 0.10 67 1006.6
20260507131526 12 252 3.2 4.8 0.00 0.58 0.10 67 1006.6
20260507131026 12 256 3.2 8.0 0.00 0.58 0.10 73 1006.6
20260507130526 12 282 3.2 8.0 0.00 0.58 0.10 74 1006.5
20260507130026 12 95 1.6 3.2 0.00 0.58 0.10 78 1006.6
20260507125526 11 270 1.6 4.8 0.00 0.58 0.10 80 1006.6
20260507125026 11 321 1.6 11.3 0.00 0.58 0.10 86 1006.6
20260507124527 11 321 3.2 8.0 0.00 0.58 0.10 87 1006.6
20260507123526 10 272 3.2 9.7 0.00 0.58 0.10 90 1006.6
20260507122526 10 301 1.6 9.7 0.00 0.58 0.10 96 1006.8
20260507122026 10 246 1.6 3.2 0.00 0.58 0.10 100 1007.0
20260507121525 9 281 1.6 3.2 0.00 0.58 0.10 100 1007.0
20260507121026 8 252 0.0 3.2 0.00 0.58 0.10 100 1006.8
20260507120526 8 310 1.6 3.2 0.00 0.58 0.10 100 1006.6
20260507120026 8 276 1.6 4.8 0.00 0.58 0.10 100 1006.5
20260507115025 8 236 1.6 3.2 0.00 0.58 0.10 100 1006.6
20260507114526 8 238 1.6 3.2 0.00 0.58 0.10 100 1006.6
20260507114025 8 290 0.0 1.6 0.05 0.58 0.10 100 1006.6
20260507113526 8 236 1.6 3.2 0.05 0.58 0.10 100 1006.7
20260507113026 8 275 1.6 3.2 0.05 0.58 0.10 100 1006.6
20260507112525 8 246 1.6 1.6 0.05 0.58 0.10 100 1006.6
20260507112026 8 253 1.6 3.2 0.05 0.58 0.10 100 1006.6
20260507111526 8 268 0.0 1.6 0.05 0.58 0.10 100 1006.5
20260507111026 8 248 0.0 1.6 0.05 0.58 0.10 100 1006.5
20260507110525 8 249 1.6 3.2 0.05 0.58 0.10 100 1006.5
20260507110025 8 258 1.6 1.6 0.05 0.58 0.10 100 1006.5
20260507105526 8 237 1.6 1.6 0.05 0.58 0.10 100 1006.3
20260507105026 8 294 1.6 3.2 0.05 0.58 0.10 100 1006.1
20260507104526 8 333 0.0 1.6 0.05 0.58 0.10 100 1006.1
20260507103526 8 352 0.0 0.0 0.00 0.53 0.05 100 1006.2
20260507103025 8 252 0.0 1.6 0.00 0.53 0.05 100 1006.5
20260507102025 8 112 0.0 1.6 0.00 0.53 0.05 100 1006.6
20260507101525 8 127 1.6 1.6 0.00 0.53 0.05 100 1006.5
20260507101026 8 182 0.0 0.0 0.00 0.53 0.05 100 1006.1
20260507100526 8 197 0.0 0.0 0.00 0.53 0.05 100 1005.9
20260507095025 8 228 0.0 1.6 0.00 0.53 0.05 100 1006.2
20260507094525 8 230 1.6 4.8 0.00 0.53 0.05 100 1005.8
20260507094026 8 270 1.6 3.2 0.00 0.53 0.05 100 1005.8
20260507093525 8 312 3.2 11.3 0.00 0.53 0.05 100 1005.7
20260507092525 8 273 3.2 9.7 0.05 0.53 0.05 100 1005.7
20260507092025 8 266 1.6 11.3 0.05 0.53 0.05 100 1005.7
20260507091525 8 274 3.2 8.0 0.05 0.53 0.05 100 1005.7
20260507090526 8 297 3.2 8.0 0.05 0.53 0.05 100 1005.7
20260507085525 8 274 1.6 3.2 0.05 0.53 0.05 100 1005.9
20260507085026 8 261 1.6 4.8 0.05 0.53 0.05 100 1006.0
20260507084526 8 253 1.6 3.2 0.05 0.53 0.05 99 1006.1
20260507084025 8 279 1.6 8.0 0.05 0.53 0.05 99 1006.1
20260507083025 8 258 1.6 1.6 0.00 0.48 0.00 99 1006.2
20260507082525 8 238 1.6 3.2 0.00 0.48 0.00 98 1006.1
20260507082025 8 258 1.6 3.2 0.00 0.48 0.00 97 1005.8
20260507081525 8 280 1.6 3.2 0.00 0.48 0.00 96 1005.7
20260507081025 8 269 1.6 3.2 0.00 0.48 0.00 95 1005.7
20260507080525 9 258 1.6 4.8 0.00 0.48 0.00 93 1005.7
20260507080025 9 248 1.6 8.0 0.00 0.48 0.00 91 1005.8
20260507075526 9 253 3.2 9.7 0.00 0.48 0.00 90 1006.1
20260507075025 9 287 3.2 9.7 0.00 0.48 0.00 88 1006.0
20260507074526 10 260 3.2 8.0 0.00 0.48 0.00 88 1005.8
20260507074025 10 273 3.2 8.0 0.00 0.48 0.00 88 1005.7
20260507073525 10 333 3.2 12.9 0.00 0.48 0.00 81 1005.5
20260507073026 10 238 4.8 12.9 0.00 0.48 0.00 80 1005.7
20260507072525 10 294 3.2 11.3 0.00 0.48 0.00 81 1005.5
20260507072026 11 298 6.4 12.9 0.00 0.48 0.00 82 1005.5
20260507071525 11 296 4.8 12.9 0.00 0.48 0.00 81 1005.2
20260507071025 11 232 3.2 8.0 0.00 0.48 0.00 84 1004.8
20260507070525 11 269 3.2 4.8 0.00 0.48 0.00 85 1004.8
20260507070025 11 265 3.2 4.8 0.00 0.48 0.00 85 1005.0
20260507065525 11 54 3.2 9.7 0.00 0.48 0.00 87 1004.7
20260507065024 11 236 1.6 3.2 0.00 0.48 0.00 88 1004.8
20260507064525 11 248 3.2 8.0 0.00 0.48 0.00 88 1004.9
20260507064025 11 255 3.2 4.8 0.00 0.48 0.00 88 1004.7
20260507063525 11 293 3.2 4.8 0.00 0.48 0.00 87 1004.8
20260507063025 11 281 1.6 4.8 0.00 0.48 0.00 88 1005.0
20260507062525 11 255 3.2 12.9 0.00 0.48 0.00 86 1005.2
20260507062025 11 260 3.2 9.7 0.00 0.48 0.00 86 1005.2
20260507061025 12 269 3.2 3.2 0.00 0.48 0.00 87 1005.1
20260507060525 12 230 4.8 8.0 0.00 0.48 0.00 86 1005.0
20260507060024 12 259 3.2 8.0 0.00 0.48 0.00 85 1004.9
20260507055525 12 295 4.8 9.7 0.00 0.48 0.00 86 1005.0
20260507055025 12 239 3.2 8.0 0.00 0.48 0.00 86 1005.2
20260507054024 12 273 1.6 9.7 0.00 0.48 0.00 89 1005.2
20260507053525 12 76 3.2 9.7 0.00 0.48 0.00 88 1005.2
20260507053025 12 266 1.6 4.8 0.00 0.48 0.00 91 1005.4
20260507052525 13 236 3.2 9.7 0.00 0.48 0.00 93 1005.7
20260507052025 13 218 3.2 8.0 0.00 0.48 0.00 94 1005.5
20260507051525 13 310 1.6 4.8 0.00 0.48 0.00 94 1005.2
20260507050525 13 237 3.2 4.8 0.00 0.48 0.00 94 1005.2
20260507050025 13 259 1.6 4.8 0.00 0.48 0.00 94 1005.1
20260507045025 13 300 1.6 8.0 0.00 0.48 0.00 94 1005.2
20260507044525 13 258 1.6 4.8 0.00 0.48 0.00 95 1005.2
20260507044025 13 267 1.6 11.3 0.00 0.48 0.00 95 1005.2
20260507043525 13 240 3.2 4.8 0.00 0.48 0.00 96 1005.2
20260507043024 13 239 1.6 4.8 0.00 0.48 0.00 96 1005.0
20260507042524 13 240 3.2 4.8 0.00 0.48 0.00 96 1005.0
20260507042025 13 257 3.2 8.0 0.00 0.48 0.00 95 1004.9
20260507041024 13 279 3.2 8.0 0.00 0.48 0.00 98 1005.2
20260507040525 13 264 4.8 9.7 0.00 0.48 0.00 100 1005.0
20260507040024 13 259 3.2 9.7 0.00 0.48 0.00 100 1005.2
20260507035524 14 243 1.6 3.2 0.00 0.48 0.48 100 1005.2
20260507034524 14 263 1.6 4.8 0.05 0.48 0.48 100 1005.3
20260507034024 14 252 1.6 3.2 0.05 0.48 0.48 100 1005.3
20260507033524 13 255 1.6 4.8 0.05 0.48 0.48 100 1005.2
20260507033025 14 249 1.6 3.2 0.05 0.48 0.48 100 1005.2
20260507032524 13 217 1.6 8.0 0.05 0.48 0.48 100 1005.0
20260507032025 13 224 3.2 8.0 0.05 0.48 0.48 100 1005.0
20260507031524 13 252 3.2 8.0 0.05 0.48 0.48 100 1004.9
20260507031025 13 249 3.2 4.8 0.05 0.48 0.48 100 1004.8
20260507030525 13 229 3.2 8.0 0.05 0.48 0.48 100 1004.8
20260507025025 13 288 1.6 4.8 0.05 0.48 0.48 100 1004.7
20260507024524 13 220 3.2 9.7 0.00 0.43 0.43 100 1004.6
20260507024025 13 252 1.6 9.7 0.00 0.43 0.43 100 1004.6
20260507023524 13 155 3.2 9.7 0.00 0.43 0.43 100 1004.5
20260507023025 13 247 3.2 8.0 0.00 0.43 0.43 100 1004.7
20260507022524 13 232 1.6 3.2 0.00 0.43 0.43 100 1004.7
20260507022025 13 234 3.2 8.0 0.00 0.43 0.43 100 1004.7
20260507021524 13 153 4.8 8.0 0.00 0.43 0.43 100 1004.6
20260507020524 13 269 3.2 8.0 0.05 0.43 0.43 100 1004.7
20260507015525 13 218 1.6 4.8 0.05 0.43 0.43 100 1004.8
20260507015024 13 259 1.6 8.0 0.05 0.43 0.43 100 1004.8
20260507014025 13 200 3.2 8.0 0.05 0.43 0.43 100 1004.6
20260507013524 13 158 1.6 4.8 0.05 0.43 0.43 100 1004.6
20260507013025 13 212 3.2 8.0 0.05 0.43 0.43 100 1004.6
20260507012524 13 209 3.2 9.7 0.05 0.43 0.43 100 1004.6
20260507012024 13 189 1.6 4.8 0.10 0.43 0.43 100 1004.9
20260507011524 13 193 3.2 8.0 0.10 0.43 0.43 100 1004.9
20260507010525 13 231 1.6 9.7 0.05 0.38 0.38 100 1005.0
20260507010024 13 193 3.2 4.8 0.05 0.38 0.38 100 1005.1
20260507005524 13 9 3.2 14.5 0.05 0.38 0.38 100 1004.9
20260507005024 13 171 1.6 4.8 0.05 0.38 0.38 100 1005.0
20260507004025 13 230 1.6 12.9 0.05 0.38 0.38 100 1005.1
20260507003524 13 53 1.6 4.8 0.05 0.38 0.38 100 1005.1
20260507003024 13 251 3.2 9.7 0.05 0.38 0.38 100 1005.2
20260507002524 13 217 4.8 14.5 0.05 0.38 0.38 100 1005.0
20260507002024 13 31 3.2 8.0 0.05 0.33 0.33 100 1004.8
20260507001524 13 203 1.6 4.8 0.05 0.33 0.33 100 1004.8
20260507001024 13 223 3.2 11.3 0.05 0.33 0.33 100 1004.9
20260507000524 13 133 1.6 8.0 0.05 0.33 0.33 100 1004.7
20260507000023 13 175 3.2 9.7 0.05 0.33 0.33 100 1004.7
20260506235524 13 183 3.2 8.0 0.05 0.33 0.33 100 1004.7
20260506235024 13 188 3.2 4.8 0.05 0.33 0.33 100 1004.7
20260506234524 13 214 1.6 8.0 0.05 0.33 0.33 100 1004.7
20260506234024 13 181 3.2 12.9 0.05 0.33 0.33 100 1004.6
20260506233524 13 212 4.8 9.7 0.05 0.33 0.33 100 1004.7
20260506233024 13 207 1.6 9.7 0.05 0.33 0.33 100 1004.6
20260506232524 13 145 4.8 12.9 0.10 0.33 0.33 100 1004.6
20260506231523 13 227 3.2 9.7 0.05 0.28 0.28 100 1004.6
20260506231023 13 184 1.6 9.7 0.05 0.28 0.28 100 1004.5
20260506230524 13 196 3.2 9.7 0.05 0.28 0.28 100 1004.5
20260506225524 13 225 3.2 8.0 0.10 0.28 0.28 100 1004.6
20260506224024 13 36 3.2 4.8 0.10 0.28 0.28 100 1004.7
20260506223024 13 205 3.2 9.7 0.15 0.28 0.28 100 1004.6
20260506222524 13 217 4.8 11.3 0.10 0.25 0.25 100 1004.7
20260506222024 14 228 3.2 8.0 0.10 0.25 0.25 100 1004.7
20260506221024 14 202 3.2 12.9 0.10 0.25 0.25 100 1005.0
20260506220523 14 226 3.2 11.3 0.10 0.25 0.25 100 1005.0
20260506220027 14 185 3.2 8.0 0.05 0.20 0.20 100 1005.1
20260506215523 14 198 3.2 9.7 0.05 0.20 0.20 100 1005.0
20260506215023 14 196 3.2 8.0 0.05 0.20 0.20 100 1005.0
20260506214524 14 110 3.2 4.8 0.05 0.20 0.20 100 1005.0
20260506214024 14 192 3.2 9.7 0.05 0.20 0.20 100 1005.0
20260506213523 14 186 3.2 4.8 0.00 0.15 0.15 100 1005.2
20260506213024 14 206 3.2 4.8 0.00 0.15 0.15 100 1005.3
20260506212524 14 184 3.2 9.7 0.00 0.15 0.15 100 1005.3
20260506212024 15 148 3.2 8.0 0.00 0.15 0.15 99 1005.4
20260506211523 15 169 3.2 11.3 0.00 0.15 0.15 99 1005.4
20260506211024 15 118 3.2 9.7 0.00 0.15 0.15 98 1005.3
20260506204524 15 190 3.2 12.9 0.05 0.15 0.15 96 1005.5
20260506203523 15 89 4.8 9.7 0.10 0.15 0.15 96 1005.7
20260506203023 15 181 4.8 16.1 0.10 0.15 0.15 95 1005.7
20260506201523 15 202 3.2 11.3 0.10 0.15 0.15 96 1005.7
20260506201023 15 210 4.8 16.1 0.15 0.15 0.15 94 1005.7
20260506200523 15 180 4.8 14.5 0.15 0.15 0.15 94 1005.7
20260506195523 15 198 4.8 14.5 0.15 0.15 0.15 93 1005.7
20260506195023 15 128 3.2 9.7 0.10 0.10 0.10 95 1005.7
20260506194523 15 171 3.2 4.8 0.10 0.10 0.10 96 1005.7
20260506194024 15 102 3.2 9.7 0.05 0.05 0.05 95 1005.5
20260506193523 15 113 3.2 8.0 0.05 0.05 0.05 93 1005.7
20260506193024 15 180 1.6 4.8 0.05 0.05 0.05 93 1005.8
20260506192523 15 299 4.8 8.0 0.05 0.05 0.05 92 1005.9
20260506191023 16 173 3.2 11.3 0.00 0.00 0.00 91 1005.9
20260506190524 16 197 4.8 12.9 0.00 0.00 0.00 89 1005.8
20260506190023 16 216 4.8 12.9 0.00 0.00 0.00 86 1006.0
20260506185523 17 209 6.4 12.9 0.00 0.00 0.00 81 1005.9
20260506185024 17 212 4.8 9.7 0.00 0.00 0.00 76 1005.9
20260506184523 18 189 8.0 12.9 0.00 0.00 0.00 71 1005.9
20260506184024 18 174 4.8 14.5 0.00 0.00 0.00 69 1006.0
20260506183523 18 241 4.8 16.1 0.00 0.00 0.00 67 1006.0
20260506183023 18 203 3.2 8.0 0.00 0.00 0.00 70 1006.3
20260506182523 19 235 4.8 14.5 0.00 0.00 0.00 68 1006.3
20260506182023 19 111 3.2 16.1 0.00 0.00 0.00 64 1006.1
20260506181523 20 237 6.4 16.1 0.00 0.00 0.00 61 1006.4
20260506175524 20 131 3.2 14.5 0.00 0.00 0.00 59 1006.4
20260506175023 20 231 4.8 16.1 0.00 0.00 0.00 56 1006.2
20260506174523 20 298 9.7 20.9 0.00 0.00 0.00 56 1006.3
20260506174023 21 215 6.4 16.1 0.00 0.00 0.00 56 1006.3
20260506173523 21 210 6.4 19.3 0.00 0.00 0.00 53 1006.2
20260506172523 21 157 4.8 20.9 0.00 0.00 0.00 53 1006.4
20260506171523 21 213 8.0 20.9 0.00 0.00 0.00 53 1006.4
20260506171023 21 217 6.4 24.1 0.00 0.00 0.00 52 1006.6
20260506170522 22 208 4.8 14.5 0.00 0.00 0.00 50 1006.3
20260506170023 22 222 6.4 16.1 0.00 0.00 0.00 52 1006.3
20260506165523 22 233 8.0 16.1 0.00 0.00 0.00 51 1006.6
20260506165023 21 188 8.0 19.3 0.00 0.00 0.00 53 1006.6
20260506164523 21 241 8.0 14.5 0.00 0.00 0.00 54 1006.6
20260506164023 21 147 6.4 16.1 0.00 0.00 0.00 54 1006.7
20260506163523 21 195 4.8 14.5 0.00 0.00 0.00 53 1006.8
20260506163023 21 144 4.8 14.5 0.00 0.00 0.00 54 1006.8
20260506162523 21 215 9.7 20.9 0.00 0.00 0.00 53 1006.8
20260506162023 21 115 4.8 11.3 0.00 0.00 0.00 53 1006.9
20260506161523 22 201 3.2 4.8 0.00 0.00 0.00 55 1007.0
20260506161022 22 93 3.2 11.3 0.00 0.00 0.00 53 1007.1
20260506160523 21 227 4.8 11.3 0.00 0.00 0.00 51 1007.1
20260506160022 21 192 8.0 24.1 0.00 0.00 0.00 52 1007.1
20260506155523 21 209 4.8 11.3 0.00 0.00 0.00 53 1007.4
20260506155022 21 250 4.8 11.3 0.00 0.00 0.00 55 1007.5
20260506154522 21 218 3.2 8.0 0.00 0.00 0.00 58 1007.6
20260506153523 21 223 4.8 14.5 0.00 0.00 0.00 56 1007.6
20260506153023 21 255 4.8 11.3 0.00 0.00 0.00 57 1007.7
20260506152522 21 350 4.8 12.9 0.00 0.00 0.00 56 1007.8
20260506152022 21 185 3.2 11.3 0.00 0.00 0.00 57 1007.9